Location: Arrodets-la-Barthe
(43.0306°N, 0.2829°E)
Time: 13:11:17
(UTC+00:00)

STRAND 1 - Pass Details

Date: 05 April 2023
Orbit: 767 x 779 km, 98.4° (Epoch: 28 May)

Event Time Altitude Azimuth Distance (km) Brightness Sun altitude
Rises 19:35:35 0° 5° (N) 3,248 ? -12.5°
Reaches altitude 10° 19:38:02 10° 357° (N) 2,316 ? -12.9°
Maximum altitude 19:42:41 37° 292° (WNW) 1,184 ? -13.7°
Drops below altitude 10° 19:47:18 10° 226° (SW) 2,303 ? -14.5°
Sets 19:49:44 0° 218° (SW) 3,226 ? -14.9°
